Location: Sungai Apap
(2.6167°N, 113.3833°E)
Time: 13:34:48
(UTC+00:00)

Cosmos 1375 Rocket - Pass Details

Date: 25 May 2024
Orbit: 949 x 1017 km, 65.8° (Epoch: 14 June)

Event Time Altitude Azimuth Distance (km) Brightness Sun altitude
Rises 21:28:38 0° 337° (NNW) 3,720 7.5 -11.8°
Reaches altitude 10° 21:31:14 10° 336° (NNW) 2,764 6.9 -11.2°
Maximum altitude 21:37:43 79° 250° (WSW) 1,010 4.5 -9.7°
Drops below altitude 10° 21:44:06 10° 164° (SSE) 2,724 6.8 -8.2°
Sets 21:46:39 0° 162° (SSE) 3,663 7.5 -7.6°
